Location: *
(43.9900°N, 3.4811°E)
Time: 17:21:08
(UTC+00:00)

Cosmos 2360 Rocket - Pass Details

Date: 25 August 2019
Orbit: 833 x 846 km, 71.0° (Epoch: 15 October)

Event Time Altitude Azimuth Distance (km) Brightness Sun altitude
Rises 21:35:19 0° 342° (NNW) 3,394 6.4 -27.6°
Reaches altitude 10° 21:38:09 10° 354° (N) 2,458 5.3 -27.9°
Maximum altitude 21:42:54 27° 52° (NE) 1,556 3.5 -28.4°
Enters shadow 21:42:59 27° 53° (NE) 1,556 3.5 -28.4°
